Wind_Speed
34 33 35 35 24 26 28 32 37 39 41 40 40 40 40 40 38 37 38 39 42 42 39 38 40 40 41 44 46 48 50 51 51 46 48 47 49 45 42 41 43 45 44
38 39 40 42 34 36 35 36 39 40 41 40 41 41 41 40 39 39 40 42 41 38 38 38 39 40 43 48 50 52 53 52 52 51 51 52 53 50 46 44 42 46 44
43 45 43 44 44 39 41 40 40 39 42 42 42 42 41 40 40 42 42 39 38 39 38 38 40 44 48 51 54 56 55 54 57 59 60 59 53 52 48 45 43 42 44
46 48 46 49 49 46 43 44 40 38 38 37 38 39 41 42 42 41 37 39 41 39 39 41 45 49 51 53 56 56 57 61 63 63 60 55 47 44 46 42 41 37 38
49 54 52 54 53 52 49 47 41 39 34 37 39 42 42 41 38 37 38 40 40 40 43 46 50 51 53 56 57 58 63 65 67 62 49 45 44 40 39 36 35 32 32
55 57 58 59 56 50 51 50 43 40 38 41 43 43 41 36 36 38 39 39 41 43 46 49 51 53 54 57 59 63 66 69 63 48 49 46 39 34 35 32 29 30 30
57 59 58 54 54 56 58 52 46 41 43 42 41 41 39 37 38 38 39 41 43 47 49 49 51 54 56 58 63 66 70 62 48 48 46 42 33 32 34 30 30 29 29
54 55 54 54 57 58 59 51 39 43 45 41 39 38 39 41 39 38 41 44 45 47 49 51 52 54 58 64 67 71 65 49 49 47 44 37 33 27 29 31 30 26 28
57 54 53 55 54 61 59 45 40 46 40 40 38 37 36 36 40 43 44 43 44 47 51 53 53 58 64 68 73 70 51 48 50 48 45 40 34 33 36 30 32 30 31
59 55 58 60 63 59 41 45 44 44 45 45 32 31 33 36 39 39 41 44 47 48 49 52 56 63 69 74 72 52 47 50 50 47 44 39 35 33 34 34 34 27 27
58 62 64 57 43 46 43 46 52 42 37 35 35 28 30 36 39 43 46 50 50 50 52 57 62 68 72 73 54 49 51 54 51 48 41 37 34 32 31 32 32 28 29
47 43 47 44 35 37 43 50 53 52 48 47 49 34 41 45 51 50 50 52 55 56 59 65 67 71 77 61 54 54 54 53 53 48 41 36 36 35 33 33 33 33 34
49 41 39 42 43 39 38 45 49 48 47 53 51 48 45 51 50 51 54 58 61 61 65 69 70 73 72 58 58 60 61 60 54 44 39 37 37 38 39 40 38 38 39
53 57 51 53 46 40 47 49 50 46 53 52 57 55 49 54 51 53 55 59 61 64 68 69 74 77 65 60 62 65 67 64 54 39 30 34 38 38 39 41 42 39 37
48 50 50 55 53 52 51 54 52 58 58 45 46 49 56 59 58 57 57 58 63 68 68 71 76 67 59 60 64 66 63 56 49 44 40 35 35 37 34 41 42 42 38
72 66 46 51 53 52 54 50 49 47 56 61 55 57 64 66 65 62 64 66 71 70 69 74 64 58 59 63 65 56 52 52 52 51 47 42 37 36 34 37 35 37 37
67 63 66 64 63 58 56 55 55 59 62 57 60 68 67 64 66 64 63 68 69 70 71 61 58 59 63 64 56 54 51 43 36 31 27 24 26 26 33 39 36 34 36
70 64 59 63 66 58 57 58 59 59 60 59 64 57 58 65 65 66 72 75 72 67 60 57 59 63 60 54 53 51 36 30 28 25 24 25 24 25 31 36 38 33 33
78 74 67 62 61 55 52 58 56 52 57 64 59 55 61 67 67 74 78 73 64 56 55 57 61 58 53 51 46 33 29 33 36 36 35 35 36 34 35 35 40 39 40
76 74 73 69 64 60 60 65 65 62 65 65 60 63 64 67 72 73 71 61 54 51 55 57 55 50 47 44 31 32 36 38 38 37 37 35 38 39 39 44 45 45 42
66 72 72 69 67 68 64 64 69 71 71 68 69 69 66 71 62 58 49 49 48 52 55 50 44 44 39 29 30 36 36 39 35 34 37 42 41 41 41 44 46 47 50
40 52 59 62 65 65 65 67 66 66 63 57 57 59 59 50 42 39 39 41 46 48 41 34 37 30 24 27 35 37 29 31 27 25 24 29 34 38 39 44 45 41 47
22 24 28 33 37 40 45 49 51 50 48 46 39 35 32 30 32 32 36 39 35 26 27 30 19 17 25 31 31 25 27 20 14 11 8 4 12 23 31 38 40 42 45
15 18 18 17 14 15 17 16 15 16 17 21 22 21 25 23 26 29 27 25 17 17 25 15 16 20 23 29 24 22 18 13 8 8 5 1 7 15 23 30 36 39 40
9 15 14 18 15 12 11 12 13 14 15 13 15 17 15 19 18 16 21 13 6 16 24 12 13 16 23 22 20 19 15 18 17 13 11 8 5 12 19 29 34 36 39
17 19 18 16 16 13 14 12 12 10 10 12 11 9 10 12 10 17 27 13 6 10 21 13 8 14 17 20 18 14 15 14 12 12 12 14 18 12 9 18 28 32 37
Wind_Direction
239 249 256 268 250 260 261 258 259 261 264 267 270 273 277 281 286 289 290 292 294 295 292 297 301 303 305 306 307 305 303 302 303 304 304 304 303 299 295 285 275 267 266
227 240 248 256 258 263 270 267 264 266 268 270 271 275 278 281 285 287 290 292 290 289 295 298 301 304 307 308 306 304 304 305 306 307 305 304 302 299 293 282 271 266 261
225 226 239 249 256 261 266 273 273 276 272 271 273 275 278 282 285 287 288 285 285 291 296 300 303 307 308 307 305 305 306 308 308 308 306 304 300 289 283 277 266 261 258
235 229 232 242 251 258 263 274 275 278 272 274 278 279 281 283 285 284 281 283 289 295 300 306 307 307 306 304 303 305 308 309 310 309 308 301 295 285 276 270 263 256 255
235 235 230 236 246 254 263 272 275 281 273 276 279 280 283 285 281 279 283 290 296 303 306 306 307 305 302 301 301 306 309 310 310 308 301 298 296 285 268 263 257 255 251
239 236 234 239 243 252 259 267 272 274 272 279 280 280 279 277 279 286 291 297 301 302 302 304 303 300 300 301 306 309 311 311 309 301 298 299 295 273 259 261 257 254 248
236 239 240 243 247 250 254 264 266 269 271 276 277 275 275 278 283 289 293 295 300 300 301 300 299 299 301 303 306 308 313 312 303 299 300 298 287 271 260 265 258 253 250
225 231 235 239 245 251 255 260 257 262 269 272 274 276 275 276 283 290 293 295 297 297 299 298 297 302 304 307 309 312 313 304 300 301 298 295 280 266 275 272 260 252 249
224 228 232 235 237 246 252 256 253 261 265 272 272 271 277 288 293 293 293 294 296 298 296 298 307 308 307 309 310 313 304 300 301 303 299 294 285 270 267 262 266 250 248
228 228 235 238 242 245 245 254 253 257 269 275 269 278 280 282 284 287 291 295 293 298 304 311 309 308 309 310 312 306 303 302 304 303 298 291 284 273 266 261 262 255 235
242 240 245 244 253 241 239 247 253 261 259 250 250 263 286 287 291 295 299 303 305 312 313 311 310 310 313 312 306 305 304 303 303 300 293 283 280 274 263 256 251 244 230
231 250 247 246 238 247 251 253 256 256 256 249 241 253 296 296 292 302 309 308 312 317 312 311 310 312 315 308 303 304 305 304 302 298 290 282 270 264 256 251 245 241 236
231 230 247 239 243 251 251 257 256 248 247 245 249 273 294 298 301 304 310 312 312 312 310 309 309 311 312 304 304 307 306 304 300 291 283 274 266 257 254 251 248 246 246
247 237 238 240 238 244 264 257 255 245 245 253 260 268 294 303 308 309 310 308 308 308 308 309 308 312 306 302 306 306 304 302 299 293 279 261 253 255 255 251 248 244 237
231 221 230 239 250 259 259 249 268 245 249 259 273 286 292 295 302 307 308 310 309 307 306 306 310 304 300 301 303 302 299 295 291 288 285 275 263 259 261 248 240 239 238
247 238 245 255 260 260 255 253 262 275 245 272 280 285 293 291 301 302 305 310 304 302 303 308 305 301 301 302 301 296 296 291 286 285 283 278 271 262 250 242 237 230 230
252 256 249 257 262 262 264 261 264 263 262 263 275 283 289 299 297 302 303 306 303 301 309 303 301 303 303 302 298 298 300 296 290 282 277 268 261 251 237 236 234 226 228
245 246 251 256 259 262 266 269 261 253 264 273 279 288 294 296 299 305 304 304 302 307 302 300 303 303 303 300 300 301 297 297 297 289 264 258 261 252 237 232 234 227 216
247 247 248 253 255 255 256 257 255 263 273 283 285 293 295 297 302 300 300 302 303 299 298 300 303 303 300 300 302 299 292 294 293 288 280 270 261 252 240 231 226 223 210
250 253 252 252 253 256 256 257 259 269 275 280 284 289 290 295 300 299 300 298 298 299 300 302 303 299 301 303 304 303 301 299 290 280 264 263 260 248 238 227 221 216 211
252 252 253 256 258 256 258 263 266 269 274 280 281 284 288 293 293 294 292 294 297 297 299 300 297 301 304 308 318 314 306 306 299 286 270 261 255 242 228 222 220 220 216
253 257 257 258 258 259 262 263 267 270 274 279 280 283 285 284 285 287 291 292 294 297 298 302 306 306 306 319 321 317 317 312 307 293 276 257 243 234 224 215 213 211 207
217 226 237 248 254 256 260 262 264 270 268 269 271 273 277 282 289 290 293 293 292 299 316 320 323 324 326 331 330 332 331 323 320 327 321 327 221 193 193 206 209 205 204
197 188 182 185 197 209 216 219 224 233 248 262 261 264 281 288 295 296 295 300 291 321 337 338 338 334 348 348 345 355 358 358 322 326 347 96 136 169 191 201 203 204 199
164 175 178 186 185 188 199 216 219 224 230 239 258 274 291 300 309 318 315 324 312 353 348 338 342 344 356 359 357 6 14 34 26 45 52 62 122 186 189 191 196 199 198
166 174 191 204 187 208 178 185 194 201 224 242 259 275 307 327 351 8 360 356 350 348 2 359 340 1 13 15 15 33 40 33 26 55 67 80 89 86 132 185 184 185 187
Height
5809 5813 5815 5816 5817 5819 5821 5822 5822 5822 5823 5825 5825 5825 5824 5823 5823 5821 5820 5819 5817 5815 5814 5811 5806 5804 5800 5797 5795 5791 5787 5783 5780 5782 5777 5774 5765 5765 5763 5760 5758 5757 5758
5800 5804 5807 5807 5809 5811 5813 5813 5813 5815 5815 5816 5816 5815 5815 5814 5814 5812 5810 5809 5808 5807 5805 5801 5797 5795 5790 5788 5784 5779 5775 5771 5768 5767 5764 5760 5754 5750 5747 5745 5744 5745 5746
5789 5793 5796 5797 5798 5801 5804 5804 5804 5805 5806 5806 5806 5806 5804 5805 5804 5803 5802 5800 5800 5798 5794 5791 5787 5784 5781 5777 5771 5767 5763 5759 5754 5751 5747 5742 5740 5731 5730 5729 5729 5730 5734
5779 5782 5785 5787 5788 5791 5792 5794 5794 5795 5795 5796 5796 5796 5796 5796 5795 5795 5793 5793 5792 5788 5784 5780 5778 5774 5771 5766 5760 5755 5751 5745 5739 5734 5729 5723 5719 5716 5713 5714 5716 5719 5723
5766 5770 5773 5775 5777 5779 5783 5784 5785 5785 5785 5786 5786 5786 5786 5786 5786 5785 5785 5783 5782 5778 5774 5772 5769 5765 5759 5753 5748 5743 5736 5730 5723 5718 5713 5708 5706 5702 5698 5701 5705 5708 5713
5752 5757 5760 5763 5766 5772 5774 5775 5777 5777 5777 5777 5778 5778 5777 5777 5777 5776 5775 5773 5771 5769 5767 5764 5760 5754 5747 5740 5734 5728 5722 5715 5709 5702 5699 5696 5692 5688 5687 5691 5695 5699 5703
5742 5745 5750 5755 5760 5762 5763 5766 5767 5768 5768 5769 5769 5769 5768 5767 5767 5765 5764 5763 5762 5761 5757 5754 5749 5740 5733 5727 5722 5715 5708 5700 5693 5689 5688 5685 5682 5680 5680 5683 5686 5690 5694
5730 5735 5739 5743 5746 5748 5750 5754 5755 5756 5758 5760 5759 5759 5759 5758 5757 5755 5754 5754 5753 5750 5746 5740 5733 5727 5719 5712 5705 5699 5693 5686 5679 5677 5674 5674 5673 5672 5672 5674 5677 5682 5685
5715 5721 5725 5729 5731 5734 5737 5739 5742 5746 5748 5749 5750 5751 5750 5748 5747 5746 5746 5745 5743 5738 5732 5724 5716 5711 5704 5697 5691 5685 5680 5674 5669 5666 5663 5661 5661 5662 5663 5665 5667 5671 5676
5703 5707 5711 5715 5717 5720 5722 5728 5733 5737 5739 5740 5740 5741 5742 5740 5739 5737 5736 5734 5730 5725 5717 5708 5703 5697 5690 5680 5674 5669 5665 5661 5657 5654 5651 5650 5650 5650 5651 5654 5657 5661 5666
5689 5694 5699 5701 5703 5705 5711 5717 5722 5725 5728 5730 5732 5732 5731 5730 5727 5725 5722 5719 5713 5707 5700 5696 5690 5683 5675 5665 5659 5656 5651 5647 5644 5641 5639 5638 5638 5639 5640 5642 5645 5650 5656
5675 5681 5685 5689 5693 5696 5701 5707 5711 5715 5716 5718 5719 5718 5716 5715 5713 5711 5707 5702 5696 5691 5688 5682 5676 5667 5660 5652 5646 5641 5637 5633 5630 5627 5627 5626 5626 5627 5628 5631 5634 5639 5645
5665 5667 5671 5679 5683 5688 5692 5695 5699 5702 5704 5706 5709 5710 5706 5703 5700 5696 5692 5687 5682 5678 5673 5667 5660 5652 5644 5638 5631 5625 5619 5616 5615 5614 5613 5612 5612 5613 5615 5619 5623 5628 5633
5652 5661 5665 5671 5669 5674 5681 5684 5688 5692 5695 5697 5698 5698 5694 5690 5688 5684 5678 5675 5669 5662 5658 5652 5644 5637 5630 5623 5617 5609 5603 5598 5596 5596 5597 5598 5599 5600 5602 5605 5609 5614 5620
5635 5642 5650 5657 5658 5665 5669 5672 5677 5677 5682 5684 5684 5683 5684 5683 5678 5674 5669 5660 5654 5649 5645 5637 5631 5623 5618 5611 5604 5597 5590 5585 5581 5580 5581 5582 5584 5586 5587 5589 5594 5600 5606
5622 5629 5635 5641 5648 5652 5655 5661 5664 5667 5672 5671 5671 5672 5672 5668 5664 5661 5656 5646 5643 5637 5631 5623 5617 5610 5603 5595 5589 5583 5576 5570 5566 5564 5564 5564 5566 5569 5572 5574 5578 5587 5596
5607 5615 5623 5628 5633 5638 5643 5648 5652 5655 5657 5657 5660 5662 5659 5654 5654 5650 5644 5637 5630 5622 5616 5608 5602 5595 5587 5580 5573 5568 5562 5554 5550 5548 5549 5551 5552 5556 5559 5563 5569 5577 5585
5595 5604 5611 5616 5622 5627 5632 5636 5642 5643 5645 5647 5649 5648 5645 5643 5640 5630 5627 5625 5619 5610 5602 5596 5589 5580 5573 5565 5559 5553 5548 5543 5540 5540 5541 5543 5543 5545 5549 5554 5558 5567 5574
5580 5590 5600 5606 5612 5617 5621 5627 5630 5632 5636 5637 5636 5632 5633 5630 5623 5621 5618 5612 5606 5599 5592 5585 5575 5567 5559 5553 5546 5540 5536 5533 5529 5528 5527 5528 5531 5534 5538 5542 5548 5556 5565
5566 5576 5586 5594 5600 5606 5610 5615 5618 5621 5624 5626 5624 5622 5621 5618 5616 5612 5605 5599 5593 5587 5579 5572 5563 5555 5547 5541 5535 5530 5525 5520 5516 5512 5512 5513 5514 5518 5523 5529 5536 5544 5555
5555 5565 5574 5581 5588 5594 5600 5605 5607 5611 5613 5612 5612 5615 5613 5611 5607 5602 5596 5589 5584 5577 5569 5561 5552 5544 5537 5532 5526 5519 5512 5505 5498 5493 5491 5492 5494 5499 5507 5514 5521 5531 5543
5545 5553 5562 5569 5575 5581 5587 5591 5596 5599 5602 5605 5605 5605 5603 5600 5596 5592 5587 5581 5574 5567 5559 5551 5541 5534 5530 5525 5519 5509 5501 5494 5486 5480 5476 5474 5476 5481 5492 5501 5510 5520 5531
5537 5544 5552 5559 5565 5570 5575 5580 5584 5588 5592 5595 5595 5595 5594 5591 5587 5583 5578 5572 5565 5559 5551 5542 5534 5529 5524 5519 5510 5503 5495 5488 5482 5477 5473 5467 5465 5472 5483 5494 5503 5513 5522
5532 5537 5544 5551 5557 5562 5567 5572 5576 5581 5584 5587 5588 5588 5586 5583 5579 5575 5569 5563 5557 5552 5543 5537 5531 5527 5523 5514 5507 5500 5493 5489 5484 5480 5477 5476 5475 5479 5484 5491 5498 5507 5517
5532 5538 5544 5550 5555 5560 5564 5568 5572 5576 5579 5582 5583 5582 5580 5578 5573 5568 5562 5556 5551 5547 5539 5534 5530 5525 5521 5515 5508 5503 5499 5495 5491 5488 5485 5483 5481 5481 5484 5489 5496 5504 5513
5532 5537 5543 5548 5552 5557 5562 5566 5570 5573 5576 5578 5578 5578 5575 5572 5568 5563 5557 5550 5546 5544 5538 5531 5528 5525 5521 5516 5512 5511 5506 5503 5499 5496 5493 5491 5488 5487 5487 5489 5495 5504 5512